Location: Launois
(49.6535°N, 4.5395°E)
Time: 01:19:26
(UTC+00:00)

CZ-2D R/B - Pass Details

Date: 11 August 2024
Orbit: 790 x 842 km, 98.8° (Epoch: 07 September)

Event Time Altitude Azimuth Distance (km) Brightness Sun altitude
Rises 01:11:59 0° 20° (NNE) 3,328 6.8 -22.5°
Reaches altitude 10° 01:14:28 10° 29° (NNE) 2,400 5.7 -22.4°
Maximum altitude 01:19:25 39° 97° (E) 1,213 3.1 -22.1°
Enters shadow 01:21:46 26° 146° (SE) 1,564 3.3 -21.9°
